Home   Weather   Beira   Past weeks

Flag for Mozambique Past Weather in Beira, Mozambique — Yesterday and Last 2 Weeks

Now
82 °F

Passing clouds.


Feels Like: 91 °F
Forecast: 78 / 86 °F
Wind: 2 mph from East

Location: Beira Airport

Current Time: Jan 24, 2017 at 1:09:27 am

Latest Report: Jan 23, 2017 at 11:00 pm


Visibility: N/A

Pressure: 29.92 "Hg

Humidity: 84%

Dew Point: 77 °F

Location of BeiraLocation

Past Weather in Beira — Graph

°F

Beira Temperature Yesterday

Maximum temperature yesterday: 88 °F (at 11:00 am)
Minimum temperature yesterday: 79 °F (at 5:00 am)
Average temperature yesterday: 84 °F

High & Low Weather Summary for the Past Weeks

 TemperatureHumidityPressure
High93 °F (Jan 16, 12:00 pm)100% (Jan 9, 7:00 am)30.01 "Hg (Jan 9, 7:00 am)
Low73 °F (Jan 18, 7:00 am)56% (Jan 16, 12:00 pm)29.53 "Hg (Jan 14, 4:00 pm)
Average83 °F83%29.76 "Hg
* Reported Jan 9 2:00 am — Jan 23 11:00 pm, Beira, Weather by CustomWeather, © 2017

Note: Actual official high and low records may vary slightly from our data, if they occured in-between our weather recording intervals... More about our weather records

Advertising

Beira Weather History for the Previous 24 Hours

Scroll right to see more
 ConditionsComfort  
Time TempWeatherWind HumidityBarometerVisibility
11:00 pm
Mon, Jan 23
82 °FPassing clouds.2 mph84%29.92 "HgN/A
10:00 pm82 °FPassing clouds.3 mph84%29.92 "HgN/A
7:00 pm84 °FPassing clouds.9 mph79%29.89 "HgN/A
5:00 pm86 °FPassing clouds.93 mph79%29.89 "HgN/A
4:00 pm86 °FPassing clouds.13 mph79%29.89 "HgN/A
3:00 pm88 °FPassing clouds.14 mph75%29.89 "HgN/A
2:00 pm88 °FScattered clouds.13 mph75%29.89 "HgN/A
1:00 pm88 °FPassing clouds.8 mph75%29.92 "HgN/A
12:00 pm88 °FPassing clouds.9 mph75%29.95 "HgN/A
11:00 am88 °FPassing clouds.12 mph75%29.95 "HgN/A
10:00 am86 °FPassing clouds.12 mph84%29.98 "HgN/A
9:00 am82 °FRain. Partly sunny.10 mph89%29.98 "Hg3 mi
8:00 am79 °FPartly sunny.3 mph94%29.98 "HgN/A
7:00 am81 °FPartly sunny.2 mph94%29.98 "HgN/A
6:00 am79 °FPartly sunny.3 mph94%29.95 "HgN/A
5:00 am79 °FPassing clouds.2 mph89%29.95 "HgN/A
Weather by CustomWeather, © 2017

See weather overviewHow to use our weather pages